Location: Piotrkow Trybunalski
(51.4000°N, 19.6830°E)
Time: 06:54:45
(UTC+02:00)

STRAND 1 - Pass Details

Date: 27 February 2024
Orbit: 764 x 779 km, 98.4° (Epoch: 24 April)

Event Time Altitude Azimuth Distance (km) Brightness Sun altitude
Rises 04:28:06 0° 145° (SE) 3,253 ? -20.0°
Reaches altitude 10° 04:30:27 10° 140° (SE) 2,330 ? -19.7°
Maximum altitude 04:35:23 49° 67° (ENE) 1,008 ? -18.9°
Drops below altitude 10° 04:40:21 10° 354° (N) 2,345 ? -18.1°
Sets 04:42:44 0° 349° (N) 3,276 ? -17.8°
